Powrót do katalogu

FENGYUN 1C DEB

AktywnyPO
NORAD 32460·DEBRIS·🇨🇳 China

Wystrzelony May 10, 1999 z Taiyuan Satellite Launch Center

Loading…

Następne Przeloty (najbliższe 24 godziny)

TLE

Starzejące sięSource: Space-Track

Epoka: Sep 7, 2026, 06:39 UTC

1 32460U 99025DBY 26250.27711983  .00000512  00000-0  38167-3 0  9999
2 32460  98.0414   4.0870 0186880  94.5693 267.6841 13.90344849689843

Śledź FENGYUN 1C DEB w czasie rzeczywistym z AllMySat

Download on the App Store